TimeCST,TemperatureF,Dew PointF,Humidity,Sea Level PressureIn,VisibilityMPH,Wind Direction,Wind SpeedMPH,Gust SpeedMPH,PrecipitationIn,Events,Conditions,WindDirDegrees,DateUTC
12:43 AM,69.8,64.4,83,30.10,7.0,East,5.8,-,N/A,,Partly Cloudy,90,2013-01-05 06:43:00
1:42 AM,69.8,64.4,83,30.08,7.0,East,4.6,-,N/A,,Partly Cloudy,80,2013-01-05 07:42:00
2:43 AM,69.8,64.4,83,30.10,7.0,East,4.6,-,N/A,,Scattered Clouds,90,2013-01-05 08:43:00
3:41 AM,69.8,64.4,83,30.08,7.0,East,4.6,-,N/A,,Partly Cloudy,90,2013-01-05 09:41:00
5:15 AM,68.0,64.4,88,30.07,7.0,East,4.6,-,N/A,,Partly Cloudy,80,2013-01-05 11:15:00
5:46 AM,68.0,64.4,88,30.05,7.0,East,3.5,-,N/A,,Scattered Clouds,80,2013-01-05 11:46:00
6:40 AM,69.8,64.4,83,30.09,7.0,East,3.5,-,N/A,,Mostly Cloudy,80,2013-01-05 12:40:00
7:43 AM,71.6,64.4,78,30.11,7.0,East,4.6,-,N/A,,Mostly Cloudy,90,2013-01-05 13:43:00
8:48 AM,77.0,66.2,69,30.15,7.0,East,12.7,-,N/A,,Scattered Clouds,90,2013-01-05 14:48:00
9:40 AM,77.0,68.0,74,30.12,8.0,East,13.8,-,N/A,,Scattered Clouds,90,2013-01-05 15:40:00
10:52 AM,77.0,66.2,69,30.11,8.0,East,12.7,-,N/A,,Scattered Clouds,100,2013-01-05 16:52:00
11:41 AM,78.8,66.2,65,30.06,8.0,East,9.2,-,N/A,,Scattered Clouds,90,2013-01-05 17:41:00
12:49 PM,80.6,66.2,61,30.08,8.0,East,9.2,-,N/A,,Scattered Clouds,80,2013-01-05 18:49:00
1:42 PM,80.6,66.2,61,30.07,8.0,East,9.2,-,N/A,,Scattered Clouds,100,2013-01-05 19:42:00
2:48 PM,80.6,66.2,61,30.09,8.0,East,8.1,-,N/A,,Scattered Clouds,100,2013-01-05 20:48:00
3:51 PM,77.0,66.2,69,30.06,8.0,East,5.8,-,N/A,,Scattered Clouds,80,2013-01-05 21:51:00
4:49 PM,75.2,66.2,73,30.07,8.0,East,5.8,-,N/A,,Scattered Clouds,90,2013-01-05 22:49:00
5:48 PM,73.4,66.2,78,30.05,8.0,Calm,Calm,-,N/A,,Scattered Clouds,0,2013-01-05 23:48:00
6:51 PM,69.8,64.4,83,30.10,8.0,Calm,Calm,-,N/A,,Scattered Clouds,0,2013-01-06 00:51:00
7:58 PM,69.8,64.4,83,30.11,7.0,Calm,Calm,-,N/A,,Scattered Clouds,0,2013-01-06 01:58:00
8:40 PM,68.0,64.4,88,30.14,7.0,Calm,Calm,-,N/A,,Partly Cloudy,0,2013-01-06 02:40:00
9:44 PM,69.8,64.4,83,30.11,7.0,East,5.8,-,N/A,,Partly Cloudy,90,2013-01-06 03:44:00
10:50 PM,69.8,64.4,83,30.08,7.0,ESE,6.9,-,N/A,,Partly Cloudy,110,2013-01-06 04:50:00
11:44 PM,68.0,64.4,88,30.03,7.0,East,3.5,-,N/A,,Clear,100,2013-01-06 05:44:00